Gustavus, AK

4:55 PM AKDT on June 26, 2017 (GMT -0800)
Gustavus

Weather History for PAGS - February, 2013

Change the Weather History Date:

Thursday, February 14, 2013

  Actual Average Record
Temperature  
Mean Temperature 42 °F -  
Max Temperature 44 °F 37 °F 50 °F (2017)
Min Temperature 39 °F 23 °F -16 °F (1956)
Degree Days  
Heating Degree Days 24    
Moisture  
Dew Point 33 °F    
Average Humidity 74    
Maximum Humidity 87    
Minimum Humidity 65    
Precipitation  
Precipitation 0.00 in - - ()
Sea Level Pressure  
Sea Level Pressure 29.95 in    
Wind  
Wind Speed 12 mph (SE)    
Max Wind Speed 22 mph    
Max Gust Speed 28 mph    
Visibility 10 miles    
Events      
Averages and records for this station are not official NWS values.
T = Trace of Precipitation, MM = Missing Value Source: NWS Daily Summary

Daily Weather History Graph

Daily Weather History Graph

Search for Another Location

Airport or City:

Trip Planner

Search our weather history database for the weather conditions in past years. The results will help you decide how hot, cold, wet, or windy it might be!

Date:

Astronomy

Feb. 14, 2013 Rise Set
Actual Time 7:36 AM AKST 4:58 PM AKST
Civil Twilight 6:55 AM AKST 5:40 PM AKST
Nautical Twilight 6:08 AM AKST 6:26 PM AKST
Astronomical Twilight 5:22 AM AKST 7:12 PM AKST
Moon 8:27 AM AKST (2/14) 11:33 PM AKST (2/14)
Length of Visible Light 10h 44m
Length of Day
9h 21m
Waxing Crescent, 23% of the Moon is Illuminated
Feb 14
Waxing Crescent
Feb 17
First Quarter
Feb 25
Full
Mar 4
Last Quarter
Mar 11
New

Hourly Weather History & Observations

Time (AKST) Temp. Windchill Dew Point Humidity Pressure Visibility Wind Dir Wind Speed Gust Speed Precip Events Conditions
12:16 AM 39.2 °F 33.0 °F 30.2 °F 70% 30.05 in 10.0 mi SSE 9.2 mph - N/A   Overcast
12:36 AM 39.2 °F 33.6 °F 30.2 °F 70% 30.06 in 10.0 mi SE 8.1 mph - N/A   Overcast
12:56 AM 41.0 °F 33.9 °F 30.2 °F 65% 30.07 in 10.0 mi SE 12.7 mph 18.4 mph N/A   Overcast
1:16 AM 39.2 °F 32.0 °F 30.2 °F 70% 30.08 in 10.0 mi SSE 11.5 mph 18.4 mph N/A   Overcast
1:36 AM 39.2 °F 31.2 °F 30.2 °F 70% 30.08 in 10.0 mi SSE 13.8 mph 18.4 mph N/A   Overcast
1:56 AM 39.2 °F 32.5 °F 30.2 °F 70% 30.07 in 10.0 mi SE 10.4 mph 18.4 mph N/A   Overcast
2:16 AM 39.2 °F 31.6 °F 30.2 °F 70% 30.08 in 10.0 mi SSE 12.7 mph 18.4 mph N/A   Overcast
2:36 AM 39.2 °F 32.0 °F 30.2 °F 70% 30.08 in 10.0 mi SSE 11.5 mph 19.6 mph N/A   Overcast
2:56 AM 39.2 °F 29.8 °F 30.2 °F 70% 30.06 in 10.0 mi SE 18.4 mph 21.9 mph N/A   Overcast
3:16 AM 39.2 °F 30.2 °F 30.2 °F 70% 30.05 in 10.0 mi SE 17.3 mph 21.9 mph N/A   Overcast
6:56 AM 39.2 °F 33.0 °F 30.2 °F 70% 30.04 in 10.0 mi SSE 9.2 mph - N/A   Overcast
7:16 AM 39.2 °F 33.0 °F 30.2 °F 70% 30.03 in 10.0 mi SSE 9.2 mph - N/A   Overcast
7:36 AM 39.2 °F 33.6 °F 30.2 °F 70% 30.02 in 10.0 mi SSE 8.1 mph - N/A   Overcast
7:56 AM 39.2 °F 33.6 °F 30.2 °F 70% 30.02 in 10.0 mi SSE 8.1 mph - N/A   Overcast
8:16 AM 39.2 °F 33.0 °F 32.0 °F 75% 30.00 in 10.0 mi SE 9.2 mph - N/A   Overcast
8:36 AM 39.2 °F 34.2 °F 32.0 °F 75% 30.00 in 10.0 mi SE 6.9 mph - N/A   Overcast
8:56 AM 39.2 °F 33.0 °F 32.0 °F 75% 29.99 in 10.0 mi SSE 9.2 mph - N/A   Overcast
9:16 AM 41.0 °F 35.2 °F 32.0 °F 70% 29.98 in 10.0 mi SSE 9.2 mph - N/A   Overcast
9:36 AM 41.0 °F 34.3 °F 32.0 °F 70% 29.98 in 10.0 mi SSE 11.5 mph 16.1 mph N/A   Overcast
9:56 AM 41.0 °F 34.3 °F 32.0 °F 70% 29.97 in 10.0 mi SSE 11.5 mph - N/A   Overcast
10:16 AM 41.0 °F 35.2 °F 33.8 °F 76% 29.97 in 10.0 mi SSE 9.2 mph - N/A   Overcast
10:36 AM 41.0 °F 39.0 °F 33.8 °F 76% 29.95 in 10.0 mi SE 3.5 mph - N/A   Overcast
10:56 AM 41.0 °F 35.8 °F 33.8 °F 76% 29.96 in 10.0 mi SE 8.1 mph - N/A   Overcast
11:16 AM 41.0 °F 34.3 °F 33.8 °F 76% 29.94 in 10.0 mi SSE 11.5 mph 18.4 mph N/A   Overcast
11:36 AM 39.2 °F 32.0 °F 33.8 °F 81% 29.94 in 10.0 mi SE 11.5 mph 18.4 mph N/A   Overcast
11:56 AM 39.2 °F 32.5 °F 33.8 °F 81% 29.93 in 10.0 mi SE 10.4 mph - N/A   Overcast
12:16 PM 41.0 °F 34.7 °F 33.8 °F 76% 29.93 in 10.0 mi SSE 10.4 mph 19.6 mph N/A   Overcast
12:36 PM 41.0 °F 32.8 °F 33.8 °F 76% 29.93 in 10.0 mi SSE 16.1 mph 23.0 mph N/A   Overcast
12:56 PM 41.0 °F 33.1 °F 33.8 °F 76% 29.92 in 10.0 mi SE 15.0 mph 23.0 mph N/A   Overcast
1:16 PM 41.0 °F 33.5 °F 33.8 °F 76% 29.92 in 10.0 mi SSE 13.8 mph 24.2 mph N/A   Overcast
1:36 PM 41.0 °F 32.5 °F 33.8 °F 76% 29.91 in 10.0 mi SE 17.3 mph 24.2 mph N/A   Overcast
1:56 PM 41.0 °F 31.9 °F 33.8 °F 76% 29.92 in 10.0 mi SSE 19.6 mph 26.5 mph N/A   Overcast
2:16 PM 41.0 °F 31.9 °F 33.8 °F 76% 29.92 in 10.0 mi SE 19.6 mph 25.3 mph N/A   Overcast
2:36 PM 41.0 °F 31.9 °F 33.8 °F 76% 29.91 in 10.0 mi SE 19.6 mph 25.3 mph N/A   Overcast
2:56 PM 42.8 °F 33.8 °F 33.8 °F 70% 29.91 in 10.0 mi SE 21.9 mph 26.5 mph N/A   Overcast
3:16 PM 42.8 °F 35.4 °F 33.8 °F 70% 29.90 in 10.0 mi SE 15.0 mph 25.3 mph N/A   Overcast
3:36 PM 42.8 °F 35.1 °F 33.8 °F 70% 29.90 in 10.0 mi SE 16.1 mph 21.9 mph N/A   Overcast
3:56 PM 42.8 °F 34.8 °F 33.8 °F 70% 29.90 in 10.0 mi SE 17.3 mph 27.6 mph N/A   Overcast
4:16 PM 41.0 °F 32.2 °F 33.8 °F 76% 29.91 in 10.0 mi SE 18.4 mph 23.0 mph N/A   Mostly Cloudy
4:36 PM 41.0 °F 31.6 °F 33.8 °F 76% 29.91 in 10.0 mi SE 20.7 mph 25.3 mph N/A   Partly Cloudy
4:56 PM 41.0 °F 32.5 °F 33.8 °F 76% 29.92 in 10.0 mi SE 17.3 mph - N/A   Scattered Clouds
5:16 PM 42.8 °F 35.4 °F 35.6 °F 76% 29.92 in 10.0 mi SE 15.0 mph 23.0 mph N/A   Overcast
5:36 PM 42.8 °F 35.1 °F 35.6 °F 76% 29.92 in 10.0 mi SE 16.1 mph 19.6 mph N/A   Overcast
5:56 PM 42.8 °F 35.1 °F 35.6 °F 76% 29.91 in 10.0 mi SE 16.1 mph 21.9 mph N/A   Overcast
6:16 PM 42.8 °F 35.4 °F 35.6 °F 76% 29.91 in 10.0 mi SE 15.0 mph 19.6 mph N/A   Overcast
6:36 PM 42.8 °F 35.4 °F 35.6 °F 76% 29.91 in 10.0 mi SE 15.0 mph - N/A   Overcast
6:56 PM 42.8 °F 35.4 °F 35.6 °F 76% 29.90 in 10.0 mi SE 15.0 mph - N/A   Overcast
7:16 PM 42.8 °F 35.1 °F 35.6 °F 76% 29.91 in 10.0 mi SE 16.1 mph - N/A   Overcast
7:36 PM 44.6 °F 37.4 °F 35.6 °F 71% 29.90 in 10.0 mi SSE 16.1 mph 21.9 mph N/A   Overcast
7:56 PM 44.6 °F 37.8 °F 35.6 °F 71% 29.91 in 10.0 mi SE 15.0 mph - N/A   Overcast
8:16 PM 44.6 °F 38.1 °F 35.6 °F 71% 29.91 in 10.0 mi SE 13.8 mph - N/A   Overcast
8:36 PM 44.6 °F 38.4 °F 35.6 °F 71% 29.90 in 10.0 mi SE 12.7 mph - N/A   Overcast
8:56 PM 44.6 °F 39.7 °F 35.6 °F 71% 29.91 in 10.0 mi SSE 9.2 mph - N/A   Overcast
9:16 PM 44.6 °F 38.8 °F 35.6 °F 71% 29.90 in 10.0 mi SE 11.5 mph - N/A   Overcast
9:36 PM 44.6 °F 38.4 °F 35.6 °F 71% 29.89 in 10.0 mi SE 12.7 mph - N/A   Overcast
9:56 PM 44.6 °F 38.4 °F 35.6 °F 71% 29.88 in 10.0 mi SE 12.7 mph - N/A   Mostly Cloudy
10:16 PM 42.8 °F 36.6 °F 35.6 °F 76% 29.88 in 10.0 mi SE 11.5 mph 19.6 mph N/A   Overcast
10:36 PM 42.8 °F 34.0 °F 35.6 °F 76% 29.87 in 10.0 mi SE 20.7 mph 24.2 mph N/A   Overcast
10:56 PM 42.8 °F 35.4 °F 35.6 °F 76% 29.87 in 10.0 mi SE 15.0 mph 23.0 mph N/A   Overcast
11:16 PM 41.0 °F 35.8 °F 35.6 °F 81% 29.88 in 10.0 mi SSE 8.1 mph - N/A   Overcast
11:36 PM 41.0 °F 35.2 °F 35.6 °F 81% 29.87 in 10.0 mi SE 9.2 mph - N/A   Overcast
11:56 PM 39.2 °F 32.5 °F 35.6 °F 87% 29.86 in 10.0 mi SE 10.4 mph - N/A   Overcast